N6CTG Weather Reports


Display with metric or nautical units.
time (UTC)temp
F
wind
direction
speed
MPH
gust
MPH
rain 1hr
in
rain 24hr
in
rain mn
in
humidity
%
barometer
mb
20260904232724 83 229 5.0 10.0 0.00 0.00 0.00 39 1009.4
20260904231804 84 229 4.0 9.0 0.00 0.00 0.00 37 1009.4
20260904230903 84 229 4.0 10.0 0.00 0.00 0.00 37 1009.4
20260904230004 84 216 4.0 10.0 0.00 0.00 0.00 37 1009.6
20260904225403 84 224 5.0 13.0 0.00 0.00 0.00 37 1009.6
20260904224524 84 226 5.0 11.0 0.00 0.00 0.00 36 1009.6
20260904223603 85 211 4.0 10.0 0.00 0.00 0.00 36 1009.6
20260904222703 85 178 4.0 7.0 0.00 0.00 0.00 35 1009.7
20260904221803 85 215 4.0 7.0 0.00 0.00 0.00 36 1009.7
20260904220904 85 228 5.0 11.0 0.00 0.00 0.00 36 1009.7
20260904220004 86 232 4.0 10.0 0.00 0.00 0.00 36 1009.7
20260904215404 86 233 6.0 12.0 0.00 0.00 0.00 35 1009.7
20260904214504 86 215 4.0 10.0 0.00 0.00 0.00 35 1009.8
20260904213603 86 227 4.0 11.0 0.00 0.00 0.00 36 1009.8
20260904212703 85 237 5.0 12.0 0.00 0.00 0.00 34 1009.8
20260904211804 86 235 6.0 12.0 0.00 0.00 0.00 33 1009.8
20260904210903 86 223 5.0 11.0 0.00 0.00 0.00 32 1009.9
20260904210004 87 193 3.0 9.0 0.00 0.00 0.00 26 1009.9
20260904205404 87 200 2.0 9.0 0.00 0.00 0.00 26 1010.1
20260904204524 86 242 4.0 7.0 0.00 0.00 0.00 25 1010.1
20260904203603 86 228 4.0 9.0 0.00 0.00 0.00 25 1010.1
20260904202703 87 181 3.0 6.0 0.00 0.00 0.00 25 1010.0
20260904201804 86 223 3.0 8.0 0.00 0.00 0.00 21 1010.2
20260904200904 85 232 4.0 10.0 0.00 0.00 0.00 22 1010.2
20260904200004 85 232 4.0 10.0 0.00 0.00 0.00 23 1010.3
20260904195404 84 236 5.0 10.0 0.00 0.00 0.00 24 1010.3
20260904194503 84 235 4.0 11.0 0.00 0.00 0.00 24 1010.4
20260904193603 84 229 3.0 9.0 0.00 0.00 0.00 24 1010.4
20260904192703 84 227 4.0 9.0 0.00 0.00 0.00 25 1010.6
20260904191804 84 242 5.0 13.0 0.00 0.00 0.00 24 1010.6
20260904190903 83 231 4.0 8.0 0.00 0.00 0.00 26 1010.7
20260904190025 83 221 3.0 8.0 0.00 0.00 0.00 23 1010.9
20260904185403 83 226 2.0 8.0 0.00 0.00 0.00 23 1010.9
20260904184504 82 223 3.0 8.0 0.00 0.00 0.00 25 1011.1
20260904183604 81 220 3.0 7.0 0.00 0.00 0.00 24 1011.0
20260904182704 81 239 2.0 5.0 0.00 0.00 0.00 26 1011.1
20260904181825 80 204 2.0 7.0 0.00 0.00 0.00 24 1011.2
20260904180903 79 221 2.0 8.0 0.00 0.00 0.00 25 1011.3
20260904180003 78 232 3.0 8.0 0.00 0.00 0.00 28 1011.3
20260904175403 78 226 3.0 7.0 0.00 0.00 0.00 29 1011.4
20260904174503 77 234 2.0 8.0 0.00 0.00 0.00 35 1011.4
20260904173604 76 204 3.0 8.0 0.00 0.00 0.00 39 1011.3
20260904172703 75 240 2.0 5.0 0.00 0.00 0.00 46 1011.4
20260904171803 75 230 4.0 7.0 0.00 0.00 0.00 46 1011.4
20260904170904 74 215 2.0 7.0 0.00 0.00 0.00 50 1011.4
20260904170004 73 157 1.0 4.0 0.00 0.00 0.00 53 1011.4
20260904165404 72 225 0.0 2.0 0.00 0.00 0.00 57 1011.4
20260904164503 70 247 1.0 3.0 0.00 0.00 0.00 61 1011.3
20260904163604 69 239 0.0 3.0 0.00 0.00 0.00 63 1011.2
20260904162703 68 232 1.0 3.0 0.00 0.00 0.00 66 1011.1
20260904161803 68 287 0.0 3.0 0.00 0.00 0.00 71 1011.0
20260904160925 67 0 0.0 0.0 0.00 0.00 0.00 75 1011.0
20260904160004 65 243 0.0 3.0 0.00 0.00 0.00 79 1011.0
20260904155403 64 174 0.0 3.0 0.00 0.00 0.00 82 1011.0
20260904154504 63 231 0.0 1.0 0.00 0.00 0.00 84 1011.0
20260904153624 62 231 0.0 1.0 0.00 0.00 0.00 86 1010.9
20260904152703 61 248 0.0 1.0 0.00 0.00 0.00 87 1010.9
20260904151804 60 166 0.0 2.0 0.00 0.00 0.00 88 1010.8
20260904150904 60 248 0.0 2.0 0.00 0.00 0.00 90 1011.0
20260904150004 59 242 0.0 2.0 0.00 0.00 0.00 90 1011.0
20260904145425 59 248 0.0 1.0 0.00 0.00 0.00 90 1010.9
20260904144503 59 171 0.0 1.0 0.00 0.00 0.00 90 1010.9
20260904143603 58 181 1.0 3.0 0.00 0.00 0.00 90 1010.9
20260904142703 58 0 0.0 0.0 0.00 0.00 0.00 89 1010.7
20260904141804 58 0 0.0 0.0 0.00 0.00 0.00 89 1010.7
20260904140925 58 0 0.0 0.0 0.00 0.00 0.00 89 1010.7
20260904140004 58 0 0.0 0.0 0.00 0.00 0.00 89 1010.6
20260904135403 58 0 0.0 0.0 0.00 0.00 0.00 89 1010.6
20260904134525 58 0 0.0 0.0 0.00 0.00 0.00 89 1010.6
20260904133604 58 0 0.0 0.0 0.00 0.00 0.00 89 1010.4
20260904132703 58 0 0.0 0.0 0.00 0.00 0.00 89 1010.3
20260904131804 58 0 0.0 0.0 0.00 0.00 0.00 89 1010.2
20260904130903 58 0 0.0 0.0 0.00 0.00 0.00 89 1010.3
20260904130004 58 0 0.0 0.0 0.00 0.00 0.00 89 1010.2
20260904125404 58 0 0.0 0.0 0.00 0.00 0.00 89 1010.2
20260904124504 58 0 0.0 0.0 0.00 0.00 0.00 89 1010.2
20260904123624 58 0 0.0 0.0 0.00 0.00 0.00 89 1010.3
20260904122704 58 0 0.0 0.0 0.00 0.00 0.00 89 1010.1
20260904121803 58 0 0.0 0.0 0.00 0.00 0.00 89 1010.2
20260904120925 58 0 0.0 0.0 0.00 0.00 0.00 89 1010.2
20260904120004 58 0 0.0 0.0 0.00 0.00 0.00 89 1010.2
20260904115403 58 0 0.0 0.0 0.00 0.00 0.00 89 1010.3
20260904114503 58 0 0.0 0.0 0.00 0.00 0.00 89 1010.3
20260904113603 58 0 0.0 0.0 0.00 0.00 0.00 89 1010.4
20260904112704 58 0 0.0 0.0 0.00 0.00 0.00 89 1010.3
20260904111803 58 0 0.0 0.0 0.00 0.00 0.00 89 1010.3
20260904110903 58 0 0.0 0.0 0.00 0.00 0.00 89 1010.4
20260904110004 58 0 0.0 0.0 0.00 0.00 0.00 90 1010.3
20260904105404 57 0 0.0 0.0 0.00 0.00 0.00 89 1010.3
20260904104504 56 0 0.0 0.0 0.00 0.00 0.00 89 1010.3
20260904103604 55 0 0.0 0.0 0.00 0.00 0.00 89 1010.2
20260904102703 54 0 0.0 0.0 0.00 0.00 0.00 88 1010.2
20260904101825 54 0 0.0 0.0 0.00 0.00 0.00 88 1010.2
20260904100925 55 0 0.0 0.0 0.00 0.00 0.00 88 1010.1
20260904100004 55 0 0.0 0.0 0.00 0.00 0.00 88 1010.1
20260904095403 55 0 0.0 0.0 0.00 0.00 0.00 88 1010.0
20260904094504 55 0 0.0 0.0 0.00 0.00 0.00 87 1009.9
20260904093603 55 0 0.0 0.0 0.00 0.00 0.00 87 1010.0
20260904092704 55 0 0.0 0.0 0.00 0.00 0.00 87 1010.0
20260904091804 56 0 0.0 0.0 0.00 0.00 0.00 87 1009.9
20260904090924 56 0 0.0 0.0 0.00 0.00 0.00 87 1009.9
20260904090004 56 0 0.0 0.0 0.00 0.00 0.00 87 1010.0
20260904085404 56 0 0.0 0.0 0.00 0.00 0.00 87 1010.1
20260904084504 56 0 0.0 0.0 0.00 0.00 0.00 87 1010.1
20260904083603 56 0 0.0 0.0 0.00 0.00 0.00 86 1010.1
20260904082704 57 0 0.0 0.0 0.00 0.00 0.00 87 1010.1
20260904081804 57 0 0.0 0.0 0.00 0.00 0.00 86 1010.2
20260904080904 57 0 0.0 0.0 0.00 0.00 0.00 86 1010.2
20260904080025 57 0 0.0 0.0 0.00 0.00 0.00 86 1010.4
20260904075425 57 0 0.0 0.0 0.00 0.00 0.00 86 1010.4
20260904074525 58 0 0.0 0.0 0.00 0.00 0.00 86 1010.3
20260904073604 58 0 0.0 0.0 0.00 0.00 0.00 86 1010.4
20260904072725 58 0 0.0 0.0 0.00 0.00 0.00 86 1010.4
20260904071803 58 0 0.0 0.0 0.00 0.00 0.00 86 1010.4
20260904070904 59 0 0.0 0.0 0.00 0.00 0.00 86 1010.5
20260904070004 59 0 0.0 0.0 0.00 0.00 0.00 86 1010.4
20260904065403 59 0 0.0 0.0 0.00 0.00 0.00 86 1010.5
20260904064504 59 0 0.0 0.0 0.00 0.00 0.00 85 1010.4
20260904063603 59 0 0.0 0.0 0.00 0.00 0.00 85 1010.3
20260904062704 60 0 0.0 0.0 0.00 0.00 0.00 85 1010.3
20260904061804 60 0 0.0 0.0 0.00 0.00 0.00 85 1010.2
20260904060904 60 0 0.0 0.0 0.00 0.00 0.00 84 1010.3
20260904060004 60 0 0.0 0.0 0.00 0.00 0.00 84 1010.2
20260904055424 60 0 0.0 0.0 0.00 0.00 0.00 84 1010.3
20260904054525 61 0 0.0 0.0 0.00 0.00 0.00 84 1010.2
20260904053603 61 0 0.0 0.0 0.00 0.00 0.00 83 1010.2
20260904052704 61 0 0.0 0.0 0.00 0.00 0.00 83 1010.2
20260904051803 61 0 0.0 0.0 0.00 0.00 0.00 83 1010.2
20260904050904 62 0 0.0 0.0 0.00 0.00 0.00 83 1010.2
20260904050004 62 0 0.0 0.0 0.00 0.00 0.00 82 1010.2
20260904045403 62 0 0.0 0.0 0.00 0.00 0.00 82 1010.2
20260904044504 63 0 0.0 0.0 0.00 0.00 0.00 82 1010.2
20260904043604 63 0 0.0 0.0 0.00 0.00 0.00 82 1010.2
20260904042704 63 0 0.0 0.0 0.00 0.00 0.00 82 1010.2
20260904041804 64 0 0.0 0.0 0.00 0.00 0.00 81 1010.3
20260904040904 64 0 0.0 0.0 0.00 0.00 0.00 81 1010.2
20260904040004 64 0 0.0 0.0 0.00 0.00 0.00 80 1010.1
20260904035404 64 0 0.0 0.0 0.00 0.00 0.00 80 1010.1
20260904034525 65 0 0.0 0.0 0.00 0.00 0.00 79 1010.1
20260904033625 65 240 0.0 1.0 0.00 0.00 0.00 78 1010.0
20260904032704 65 0 0.0 0.0 0.00 0.00 0.00 77 1009.9
20260904031804 66 241 0.0 2.0 0.00 0.00 0.00 77 1009.8
20260904030904 66 222 0.0 1.0 0.00 0.00 0.00 75 1009.7
20260904030004 66 233 0.0 2.0 0.00 0.00 0.00 74 1009.7
20260904025404 67 223 0.0 2.0 0.00 0.00 0.00 74 1009.7
20260904024504 67 244 1.0 4.0 0.00 0.00 0.00 73 1009.6
20260904023604 68 238 0.0 4.0 0.00 0.00 0.00 72 1009.6
20260904022704 68 243 0.0 3.0 0.00 0.00 0.00 70 1009.5
20260904021825 69 246 1.0 3.0 0.00 0.00 0.00 70 1009.5
20260904020903 70 241 2.0 5.0 0.00 0.00 0.00 68 1009.5
20260904020004 70 246 2.0 6.0 0.00 0.00 0.00 67 1009.5
20260904015404 71 245 3.0 6.0 0.00 0.00 0.00 66 1009.5
20260904014504 72 249 2.0 6.0 0.00 0.00 0.00 64 1009.6
20260904013604 72 251 2.0 5.0 0.00 0.00 0.00 63 1009.4
20260904012704 73 246 2.0 4.0 0.00 0.00 0.00 62 1009.6
20260904011804 73 251 3.0 8.0 0.00 0.00 0.00 61 1009.5
20260904010925 74 243 3.0 8.0 0.00 0.00 0.00 59 1009.4
20260904010004 74 242 4.0 9.0 0.00 0.00 0.00 60 1009.5
20260904005404 74 242 5.0 9.0 0.00 0.00 0.00 59 1009.5
20260904004504 75 255 4.0 9.0 0.00 0.00 0.00 58 1009.4
20260904003604 76 256 4.0 9.0 0.00 0.00 0.00 56 1009.4
20260904002704 77 257 5.0 9.0 0.00 0.00 0.00 56 1009.4
20260904001803 78 243 5.0 11.0 0.00 0.00 0.00 53 1009.3
20260904000904 78 241 5.0 10.0 0.00 0.00 0.00 52 1009.2
20260904000004 80 238 5.0 11.0 0.00 0.00 0.00 48 1009.2
20260903235425 80 235 5.0 11.0 0.00 0.00 0.00 46 1009.1
20260903234504 80 232 4.0 10.0 0.00 0.00 0.00 45 1009.1
20260903233604 80 220 4.0 9.0 0.00 0.00 0.00 45 1009.2